Regional Weather Roundup
Issued by NWS

Home | Current Version | Previous Version | Text Only | Print | Product List | Glossary On
Versions: 1 2 3 4 5 6 7 8 9 10 11 12 13 14 15 16 17 18 19 20 21 22 23 24 25 26 27 28 29 30 31 32 33 34 35 36 37 38 39 40 41 42 43 44 45 46 47 48 49 50
019
ASUS44 KMEG 300510
RWRTN
TENNESSEE HOURLY STATE WEATHER ROUNDUP
NATIONAL WEATHER SERVICE MEMPHIS TN
1200 AM CDT SAT APR 30 2016

TNZ002-004-019-021-049-052-054-088>092-300600-
WEST TENNESSEE

CITY           SKY/WX    TMP DP  RH WIND       PRES   REMARKS
MEMPHIS INTL   CLOUDY    66  61  84 E7        29.85R
NWS MEMPHIS      N/A     63 N/A N/A MISG        N/A
JACKSON        CLOUDY    63  59  87 CALM      29.88S
DYERSBURG      CLOUDY    61  57  88 CALM        N/A
UNION CITY     CLEAR     61  61 100 CALM      29.87F
LEXINGTON      CLEAR     61  59  94 CALM      29.88S
$$

TNZ008-025-027-028-033-062-065-066-300600-
NORTH MIDDLE TENNESSEE

CITY           SKY/WX    TMP DP  RH WIND       PRES   REMARKS
NASHVILLE      CLOUDY    65  59  81 CALM      29.94F
CLARKSVILLE    CLOUDY    62  58  86 E7        29.93F
SMYRNA         CLOUDY    63  60  90 CALM      29.95F
COOKEVILLE     PTCLDY    64  57  77 CALM      29.96F
CROSSVILLE     CLOUDY    64  56  75 NE3       30.02F
$$

TNZ061-075-076-078-094-096-097-300600-
SOUTH MIDDLE TENNESSEE

CITY           SKY/WX    TMP DP  RH WIND       PRES   REMARKS
FAYETTEVILLE   CLEAR     63  59  88 SE5       29.93S
TULLAHOMA      CLEAR     64  57  77 CALM      29.94F
WINCHESTER     CLEAR     66  54  63 E9        29.93F
MCMINNVILLE    CLEAR     61  61 100 CALM      29.95F
COLUMBIA         N/A    N/A N/A N/A NE5       29.90S
SHELBYVILLE    PTCLDY    63  59  88 SE3       29.94F
$$

TNZ017-018-042-046-047-300600-
NORTHEAST TENNESSEE

CITY           SKY/WX    TMP DP  RH WIND       PRES   REMARKS
TRI CITIES     CLOUDY    61  55  81 CALM      30.04S
$$

TNZ012-013-036-069-073-074-300600-
CENTRAL EAST TENNESSEE

CITY           SKY/WX    TMP DP  RH WIND       PRES   REMARKS
KNOXVILLE      CLOUDY    68  58  70 NE6       29.98F
OAK RIDGE      CLOUDY    66  59  78 CALM      30.01R
MORRISTOWN     MOCLDY    63  55  77 CALM      30.00F
$$

TNZ083-085-099-300600-
SOUTHEAST TENNESSEE

CITY           SKY/WX    TMP DP  RH WIND       PRES   REMARKS
CHATTANOOGA    PTCLDY    68  56  65 CALM      29.97F
$$

SKY/WX REPORTED AS FAIR MEANS FEW OR NO CLOUDS BELOW
12 THOUSAND FEET.





USA.gov is the U.S. government's official web portal to all federal, state and local government web resources and services.